Вернуться в каталог

CZ-6A DEB

АктивенSSO
NORAD 54984·DEBRIS·🇨🇳 China

Запущен Nov 11, 2022 с Taiyuan Satellite Launch Center

Loading…

Ближайшие Пролёты (ближайшие 24 часа)

TLE

СвежийSource: Space-Track

Эпоха: Sep 13, 2026, 07:06 UTC

1 54984U 22151TZ  26256.29625358  .00000416  00000-0  38463-3 0  9990
2 54984  98.9455 189.7567 0219136 308.4338  49.7322 13.77739059191364

Отслеживайте CZ-6A DEB в реальном времени с AllMySat

Download on the App Store